Terug naar catalogus

STARLINK-4644

ActiefCommunicatieVLEO
NORAD 53719·PAYLOAD·🇺🇸 United States

Gelanceerd Sep 5, 2022 vanaf Cape Canaveral Space Force Station

Loading…

Volgende Passages (komende 24 uur)

TLE

VersSource: CelesTrak SupGP

Epoch: Sep 15, 2026, 02:33 UTC

1 53719C 22107V   26258.10673611 -.00009698  00000+0 -28648-3 0  2587
2 53719  53.1575  87.0219 0001205  83.9464  47.3690 15.34399281    17

Volg STARLINK-4644 in realtime met AllMySat

Download on the App Store